Location: Igon
(43.1667°N, 0.2333°W)
Time: 07:42:35
(UTC+00:00)

NOAA 16 DEB - Pass Details

Date: 23 June 2021
Orbit: 682 x 809 km, 98.9° (Epoch: 03 August)

Event Time Altitude Azimuth Distance (km) Brightness Sun altitude
Rises 02:26:37 0° 117° (ESE) 3,323 ? -15.7°
Reaches altitude 10° 02:29:47 10° 97° (E) 2,397 ? -15.4°
Maximum altitude 02:33:00 17° 59° (ENE) 1,972 ? -15.0°
Drops below altitude 10° 02:36:13 10° 22° (NNE) 2,391 ? -14.7°
Sets 02:39:21 0° 2° (N) 3,312 ? -14.3°
